Location: Melizzano
(41.1500°N, 14.5000°E)
Time: 07:40:39
(UTC+00:00)

SPOT 5 - Pass Details

Date: 11 May 2021
Orbit: 623 x 815 km, 98.2° (Epoch: 18 June)

Event Time Altitude Azimuth Distance (km) Brightness Sun altitude
Exits shadow 19:59:16 27° 106° (ESE) 1,454 3.9 -17.7°
Maximum altitude 20:01:02 34° 68° (ENE) 1,257 3.9 -17.9°
Drops below altitude 10° 20:05:45 10° 5° (N) 2,379 6.1 -18.5°
Sets 20:08:18 0° 356° (N) 3,330 7.1 -18.8°
